This demonstration page uses our WeatherBlox Daily Observations layout. Learn more.

40.92945, -100.16068

Hourly Observations for January 23, 2020

Temp ( °F °C ) Dew Point ( °F °C ) Humidity (%) Winds ( mph kmh ) Pressure ( in mb ) Visibility ( mi km ) Precip ( " mm )
12:15 am 00:15 Cloudy 36 2.3 34 1 91 91 NW 14 22 30 1016 10 16.0934 0 0
12:35 am 00:35 Cloudy 37 2.5 33 0.8 89 89 NW 14 22 29.99 1016 10 16.0934 0 0
12:55 am 00:55 Cloudy 36 2.2 33 0.7 90 90 NW 13 20 30.01 1016 10 16.0934 0 0
1:15 am 01:15 Cloudy 36 2.2 33 0.5 89 89 NW 18 30 30.01 1016 10 16.0934 0 0
1:35 am 01:35 Cloudy 36 2.3 33 0.4 87 87 NNW 20 31 30 1016 10 16.0934 0 0
1:55 am 01:55 Cloudy 36 2.3 33 0.3 87 87 NW 20 31 30 1016 10 16.0934 0 0
2:15 am 02:15 Cloudy 36 2.1 32 0.2 87 87 NW 20 31 30.01 1016 10 16.0934 0 0
2:35 am 02:35 Cloudy 35 1.8 32 0 88 88 NW 18 30 30.02 1017 10 16.0934 0 0
2:55 am 02:55 Cloudy 35 1.7 32 0 89 89 NW 16 26 30.02 1017 10 16.0934 0 0
3:15 am 03:15 Cloudy 35 1.8 32 0.1 89 89 NW 16 26 30.02 1017 10 16.0934 0 0
3:35 am 03:35 Mostly Cloudy 35 1.5 32 0 90 90 NW 14 22 30.01 1016 10 16.0934 0 0
3:55 am 03:55 Mostly Cloudy 35 1.5 32 0.1 91 91 NW 12 19 30.01 1016 10 16.0934 0 0
4:15 am 04:15 Cloudy 34 1.3 32 0 91 91 NW 12 19 30.01 1016 10 16.0934 0 0
4:35 am 04:35 Cloudy 34 0.9 32 0 94 94 WNW 10 17 30.02 1017 10 16.0934 0 0
4:55 am 04:55 Cloudy 33 0.5 32 0 96 96 WNW 9 15 30.02 1017 10 16.0934 0 0
5:15 am 05:15 Cloudy 33 0.8 32 0 94 94 WNW 10 17 30.02 1017 10 16.0934 0 0
5:35 am 05:35 Cloudy 33 0.8 32 -0.2 93 93 WNW 14 22 30.02 1017 10 16.0934 0 0
5:55 am 05:55 Cloudy 34 1 31 -0.5 90 90 WNW 14 22 30.03 1017 10 16.0934 0 0
6:15 am 06:15 Cloudy 34 1.1 31 -0.5 89 89 NW 16 26 30.03 1017 10 16.0934 0 0
6:35 am 06:35 Cloudy 34 1.3 31 -0.7 87 87 NW 16 26 30.03 1017 10 16.0934 0 0
6:55 am 06:55 Cloudy 35 1.5 31 -0.5 87 87 NW 17 28 30.03 1017 10 16.0934 0 0
7:15 am 07:15 Cloudy 35 1.5 31 -0.4 87 87 NW 18 30 30.04 1017 10 16.0934 0 0
7:35 am 07:35 Cloudy with Light Snow 34 1.2 32 -0.2 91 91 NW 17 28 30.04 1017 10 16.0934 0 0
7:55 am 07:55 Cloudy with Light Rain 34 1 32 0 93 93 NW 18 30 30.05 1018 10 16.0934 0 0
8:15 am 08:15 Cloudy with Light Rain 34 0.9 32 0 94 94 WNW 10 17 30.06 1018 10 16.0934 0 0
8:35 am 08:35 Cloudy with Light Snow 33 0.5 31 -0.7 92 92 WNW 13 20 30.06 1018 4 6.43736 0 0
8:55 am 08:55 Cloudy with Light Snow 33 0.5 31 -0.7 92 92 WNW 12 19 30.06 1018 7 11.26538 0 0
9:15 am 09:15 Cloudy with Light Snow 34 1 31 -0.4 90 90 NW 16 26 30.06 1018 7 11.26538 0 0
9:35 am 09:35 Cloudy with Light Snow 35 1.5 32 -0.1 89 89 NW 17 28 30.05 1018 10 16.0934 0 0
9:55 am 09:55 Cloudy 35 1.8 31 -0.3 86 86 NNW 20 31 30.06 1018 10 16.0934 0 0
10:15 am 10:15 Cloudy 36 2 32 -0.1 86 86 NNW 20 31 30.06 1018 10 16.0934 0 0
10:35 am 10:35 Cloudy with Light Rain 36 2 32 0 87 87 NNW 22 35 30.07 1018 10 16.0934 0 0
10:55 am 10:55 Cloudy 36 2.1 32 0 86 86 NW 24 39 30.07 1018 10 16.0934 0 0
11:15 am 11:15 Cloudy 36 2 32 0 87 87 NW 22 35 30.08 1019 10 16.0934 0 0
11:35 am 11:35 Cloudy with Light Drizzle 36 2.1 32 0.1 87 87 NNW 25 41 30.08 1018 10 16.0934 0 0
12:15 pm 12:15 Cloudy with Light Drizzle 36 2.1 33 0.5 89 89 NNW 21 33 30.07 1018 10 16.0934 0 0
12:55 pm 12:55 Cloudy 37 2.5 32 0 84 84 NNW 22 35 30.06 1018 10 16.0934 0 0
1:35 pm 13:35 Cloudy 37 2.5 32 0.2 85 85 N 21 33 30.05 1018 10 16.0934 0 0
2:55 pm 14:55 Cloudy 37 2.5 32 -0.1 83 83 NNW 20 31 30.06 1018 10 16.0934 0 0
3:15 pm 15:15 Cloudy 36 2.1 32 -0.2 85 85 NNW 18 30 30.07 1018 10 16.0934 0 0
3:55 pm 15:55 Cloudy with Light Snow 35 1.5 32 0 90 90 NNW 17 28 30.09 1019 7 11.26538 0 0
4:15 pm 16:15 Cloudy with Light Snow 34 1 32 0.1 94 94 NNW 17 28 30.1 1019 1.25 2.011675 0 0
4:35 pm 16:35 Windy with Snow Likely 33 0.8 32 0 94 94 N 20 31 30.11 1020 4 6.43736 0 0
4:55 pm 16:55 Windy with Snow Likely 33 0.8 32 -0.1 94 94 N 21 33 30.12 1020 5 8.0467 0 0
5:15 pm 17:15 Cloudy 33 0.7 31 -0.5 92 92 N 15 24 30.13 1020 10 16.0934 0 0
5:35 pm 17:35 Cloudy with Light Snow 33 0.6 31 -0.5 92 92 N 16 26 30.13 1020 10 16.0934 0 0
5:55 pm 17:55 Cloudy 33 0.6 31 -0.3 94 94 N 12 19 30.13 1020 10 16.0934 0 0
6:15 pm 18:15 Cloudy 33 0.6 31 -0.5 92 92 N 14 22 30.13 1020 10 16.0934 0 0
6:35 pm 18:35 Cloudy 33 0.5 31 -0.5 93 93 N 13 20 30.13 1020 10 16.0934 0 0
6:55 pm 18:55 Cloudy 33 0.6 31 -0.8 90 90 N 16 26 30.13 1020 10 16.0934 0 0
7:15 pm 19:15 Cloudy 33 0.5 31 -0.7 92 92 N 15 24 30.13 1020 10 16.0934 0 0
7:35 pm 19:35 Cloudy 33 0.3 31 -0.8 92 92 N 16 26 30.13 1020 10 16.0934 0 0
7:55 pm 19:55 Cloudy 33 0.3 31 -0.8 92 92 N 14 22 30.14 1021 10 16.0934 0 0
8:15 pm 20:15 Cloudy 33 0.3 30 -0.9 92 92 N 13 20 30.14 1021 10 16.0934 0 0
8:35 pm 20:35 Cloudy 33 0.4 30 -1.1 90 90 N 15 24 30.14 1021 10 16.0934 0 0
8:55 pm 20:55 Cloudy 33 0.5 30 -1.1 89 89 N 14 22 30.14 1021 10 16.0934 0 0
9:15 pm 21:15 Cloudy 32 0.2 30 -1.2 90 90 N 13 20 30.16 1021 10 16.0934 0 0
9:35 pm 21:35 Cloudy 32 0.1 30 -1.2 91 91 N 12 19 30.16 1021 10 16.0934 0 0
9:55 pm 21:55 Cloudy 32 0 29 -1.5 90 90 N 13 20 30.16 1021 10 16.0934 0 0
10:15 pm 22:15 Cloudy 32 -0.1 29 -1.6 90 90 N 10 17 30.17 1022 10 16.0934 0 0
10:35 pm 22:35 Cloudy 32 -0.1 29 -1.9 88 88 N 14 22 30.17 1022 10 16.0934 0 0
10:55 pm 22:55 Cloudy 32 -0.1 29 -1.8 88 88 NNW 10 17 30.17 1022 10 16.0934 0 0
11:15 pm 23:15 Cloudy 32 -0.1 28 -2 87 87 N 10 17 30.17 1022 10 16.0934 0 0
11:35 pm 23:35 Cloudy 32 -0.1 28 -2 87 87 N 10 17 30.17 1022 10 16.0934 0 0
11:55 pm 23:55 Cloudy 31 -0.6 28 -2.2 89 89 N 13 20 30.18 1022 10 16.0934 0 0

Powered by AerisWeather